Weather History for KHVN - October, 2013

Change the Weather History Date:

Monday, October 21, 2013

  Actual Average Record
Temperature  
Mean Temperature 50 °F -  
Max Temperature 66 °F 57 °F 78 °F (1969)
Min Temperature 37 °F 42 °F 29 °F (1972)
Degree Days  
Heating Degree Days 14    
Moisture  
Dew Point 40 °F    
Average Humidity 63    
Maximum Humidity 93    
Minimum Humidity 39    
Precipitation  
Precipitation 0.00 in - - ()
Sea Level Pressure  
Sea Level Pressure 30.08 in    
Wind  
Wind Speed 3 mph (SSW)    
Max Wind Speed 13 mph    
Max Gust Speed 22 mph    
Visibility 10 miles    
Events      
Averages and records for this station are not official NWS values.
T = Trace of Precipitation, MM = Missing Value Source: NWS Daily Summary

Daily Weather History Graph

Daily Weather History Graph

Search for Another Location

Airport or City:

Trip Planner

Search our weather history database for the weather conditions in past years. The results will help you decide how hot, cold, wet, or windy it might be!

Date:

Astronomy

Oct. 21, 2013 Rise Set
Actual Time 7:10 AM EDT 6:01 PM EDT
Civil Twilight 6:42 AM EDT 6:29 PM EDT
Nautical Twilight 6:09 AM EDT 7:01 PM EDT
Astronomical Twilight 5:38 AM EDT 7:33 PM EDT
Moon 7:50 PM EDT (10/21) 9:44 AM EDT (10/21)
Length of Visible Light 11h 47m
Length of Day
10h 51m
Waning Gibbous, 93% of the Moon is Illuminated
Oct 21
Waning Gibbous
Oct 26
Last Quarter
Nov 3
New
Nov 10
First Quarter
Nov 17
Full

Hourly Weather History & Observations

Time (EDT) Temp. Dew Point Humidity Pressure Visibility Wind Dir Wind Speed Gust Speed Precip Events Conditions
12:53 AM 43.0 °F 36.0 °F 76% 30.06 in 10.0 mi Calm Calm - N/A   Clear
1:53 AM 43.0 °F 37.0 °F 80% 30.07 in 10.0 mi Calm Calm - N/A   Clear
2:53 AM 43.0 °F 36.0 °F 76% 30.08 in 10.0 mi Calm Calm - N/A   Clear
3:53 AM 41.0 °F 36.0 °F 82% 30.09 in 10.0 mi Calm Calm - N/A   Clear
4:53 AM 39.9 °F 36.0 °F 86% 30.10 in 10.0 mi Calm Calm - N/A   Clear
5:53 AM 39.0 °F 35.1 °F 86% 30.11 in 10.0 mi Calm Calm - N/A   Clear
6:53 AM 37.9 °F 34.0 °F 86% 30.12 in 10.0 mi Calm Calm - N/A   Clear
7:53 AM 39.0 °F 37.0 °F 93% 30.13 in 10.0 mi Calm Calm - N/A   Clear
8:53 AM 52.0 °F 39.9 °F 63% 30.15 in 10.0 mi WSW 4.6 mph - N/A   Clear
9:53 AM 55.0 °F 41.0 °F 59% 30.15 in 10.0 mi Calm Calm - N/A   Clear
10:53 AM 59.0 °F 39.0 °F 48% 30.13 in 10.0 mi Variable 4.6 mph - N/A   Clear
11:53 AM 62.1 °F 42.1 °F 48% 30.12 in 10.0 mi SSW 9.2 mph - N/A   Clear
12:53 PM 63.0 °F 44.1 °F 50% 30.11 in 10.0 mi SSW 8.1 mph - N/A   Clear
1:53 PM 64.0 °F 42.1 °F 45% 30.08 in 10.0 mi WSW 4.6 mph - N/A   Clear
2:53 PM 64.9 °F 39.9 °F 40% 30.06 in 10.0 mi SW 4.6 mph - N/A   Clear
3:53 PM 64.9 °F 39.0 °F 39% 30.04 in 10.0 mi SSW 4.6 mph - N/A   Clear
4:53 PM 63.0 °F 41.0 °F 45% 30.04 in 10.0 mi South 6.9 mph - N/A   Clear
5:53 PM 59.0 °F 43.0 °F 55% 30.05 in 10.0 mi South 5.8 mph - N/A   Partly Cloudy
6:53 PM 60.1 °F 43.0 °F 53% 30.06 in 10.0 mi SSW 8.1 mph - N/A   Scattered Clouds
7:53 PM 60.1 °F 44.1 °F 55% 30.06 in 10.0 mi SSW 10.4 mph 17.3 mph N/A   Scattered Clouds
8:53 PM 60.1 °F 44.1 °F 55% 30.06 in 10.0 mi SSW 9.2 mph 21.9 mph N/A   Partly Cloudy
9:53 PM 60.1 °F 46.0 °F 60% 30.04 in 10.0 mi SSW 12.7 mph 20.7 mph N/A   Partly Cloudy
10:53 PM 59.0 °F 48.0 °F 67% 30.02 in 10.0 mi SSW 10.4 mph 17.3 mph N/A   Clear
11:53 PM 59.0 °F 48.0 °F 67% 30.00 in 10.0 mi SSW 10.4 mph 17.3 mph N/A   Clear